| time (UTC) | temp F | wind direction | speed MPH | gust MPH | rain 1hr in | rain 24hr in | rain mn in | humidity % | barometer mb |
| 20260505080035 | 38 | 248 | 1.0 | 4.0 | 0.00 | 0.41 | 0.00 | 92 | 1007.4 |
| 20260505074535 | 38 | 247 | 1.0 | 4.0 | 0.00 | 0.43 | 0.00 | 91 | 1007.3 |
| 20260505073028 | 39 | 247 | 0.0 | 3.0 | 0.00 | 0.43 | 0.00 | 89 | 1007.0 |
| 20260505071526 | 40 | 245 | 0.0 | 4.0 | 0.00 | 0.43 | 0.00 | 88 | 1006.7 |
| 20260505070023 | 41 | 250 | 2.0 | 6.0 | 0.00 | 0.43 | 0.00 | 89 | 1006.5 |
| 20260505064531 | 41 | 208 | 0.0 | 4.0 | 0.00 | 0.46 | 0.00 | 88 | 1006.3 |
| 20260505063017 | 41 | 177 | 1.0 | 5.0 | 0.00 | 0.46 | 0.00 | 89 | 1006.0 |
| 20260505061513 | 42 | 270 | 0.0 | 3.0 | 0.00 | 0.46 | 0.00 | 85 | 1005.7 |
| 20260505060011 | 44 | 268 | 1.0 | 8.0 | 0.00 | 0.46 | 0.00 | 83 | 1005.5 |
| 20260505054516 | 45 | 252 | 1.0 | 7.0 | 0.00 | 0.46 | 0.00 | 81 | 1005.2 |
| 20260505053003 | 46 | 268 | 1.0 | 11.0 | 0.00 | 0.46 | 0.00 | 80 | 1005.0 |
| 20260505051501 | 46 | 235 | 1.0 | 10.0 | 0.00 | 0.46 | 0.00 | 80 | 1004.8 |
| 20260505050109 | 46 | 268 | 3.0 | 11.0 | 0.00 | 0.46 | 0.00 | 80 | 1004.6 |
| 20260505041604 | 47 | 306 | 2.0 | 11.0 | 0.00 | 0.46 | 0.00 | 81 | 1004.2 |
| 20260505034608 | 46 | 245 | 2.0 | 9.0 | 0.00 | 0.46 | 0.00 | 81 | 1003.9 |
| 20260505033050 | 46 | 253 | 3.0 | 12.0 | 0.00 | 0.46 | 0.00 | 80 | 1003.6 |
| 20260505031546 | 46 | 222 | 2.0 | 8.0 | 0.00 | 0.46 | 0.00 | 80 | 1003.4 |
| 20260505030048 | 47 | 258 | 2.0 | 12.0 | 0.00 | 0.46 | 0.00 | 79 | 1003.2 |
| 20260505024542 | 47 | 247 | 3.0 | 12.0 | 0.00 | 0.48 | 0.46 | 78 | 1002.9 |
| 20260505023044 | 45 | 236 | 3.0 | 8.0 | 0.00 | 0.48 | 0.46 | 79 | 1002.8 |
| 20260505021540 | 44 | 286 | 3.0 | 11.0 | 0.00 | 0.48 | 0.46 | 81 | 1002.6 |
| 20260505020052 | 42 | 253 | 3.0 | 8.0 | 0.00 | 0.48 | 0.46 | 87 | 1002.5 |
| 20260505014541 | 38 | 224 | 0.0 | 6.0 | 0.00 | 0.56 | 0.46 | 91 | 1002.5 |
| 20260505013040 | 37 | 250 | 1.0 | 6.0 | 0.00 | 0.56 | 0.46 | 90 | 1002.4 |
| 20260505011536 | 37 | 233 | 1.0 | 4.0 | 0.00 | 0.56 | 0.46 | 89 | 1002.4 |
| 20260505010033 | 37 | 233 | 1.0 | 4.0 | 0.00 | 0.56 | 0.46 | 88 | 1002.0 |
| 20260505004555 | 38 | 237 | 2.0 | 4.0 | 0.00 | 0.85 | 0.46 | 87 | 1001.8 |
| 20260505003032 | 39 | 237 | 0.0 | 3.0 | 0.00 | 0.85 | 0.46 | 85 | 1002.0 |
| 20260505001535 | 39 | 245 | 0.0 | 5.0 | 0.00 | 0.85 | 0.46 | 84 | 1001.5 |
| 20260505000033 | 40 | 174 | 1.0 | 3.0 | 0.00 | 0.85 | 0.46 | 83 | 1001.5 |
| 20260504234528 | 42 | 170 | 0.0 | 2.0 | 0.00 | 0.99 | 0.46 | 79 | 1001.2 |
| 20260504233026 | 44 | 172 | 0.0 | 4.0 | 0.00 | 0.99 | 0.46 | 75 | 1001.0 |
| 20260504231524 | 45 | 213 | 1.0 | 4.0 | 0.00 | 0.99 | 0.46 | 73 | 1000.7 |
| 20260504230023 | 47 | 216 | 0.0 | 4.0 | 0.00 | 0.99 | 0.46 | 71 | 1000.5 |
| 20260504224529 | 49 | 208 | 1.0 | 11.0 | 0.00 | 1.24 | 0.46 | 64 | 1000.3 |
| 20260504223021 | 50 | 301 | 6.0 | 13.0 | 0.00 | 1.24 | 0.46 | 62 | 1000.2 |
| 20260504221517 | 50 | 222 | 8.0 | 19.0 | 0.00 | 1.24 | 0.46 | 60 | 999.9 |
| 20260504220116 | 51 | 311 | 10.0 | 21.0 | 0.00 | 1.24 | 0.46 | 60 | 999.5 |
| 20260504214514 | 51 | 256 | 9.0 | 20.0 | 0.00 | 1.28 | 0.46 | 61 | 999.1 |
| 20260504213029 | 52 | 294 | 6.0 | 19.0 | 0.00 | 1.28 | 0.46 | 60 | 998.6 |
| 20260504211513 | 52 | 241 | 8.0 | 23.0 | 0.00 | 1.28 | 0.46 | 61 | 998.6 |
| 20260504210110 | 52 | 251 | 14.0 | 32.0 | 0.00 | 1.28 | 0.46 | 61 | 998.5 |
| 20260504204611 | 52 | 276 | 11.0 | 28.0 | 0.00 | 1.39 | 0.46 | 61 | 998.5 |
| 20260504203005 | 52 | 248 | 12.0 | 24.0 | 0.00 | 1.39 | 0.46 | 62 | 998.0 |
| 20260504201501 | 52 | 296 | 10.0 | 28.0 | 0.00 | 1.39 | 0.46 | 64 | 997.7 |
| 20260504194603 | 52 | 279 | 13.0 | 25.0 | 0.00 | 1.40 | 0.46 | 67 | 997.1 |
| 20260504193053 | 51 | 211 | 12.0 | 31.0 | 0.00 | 1.40 | 0.46 | 69 | 997.0 |
| 20260504191610 | 50 | 227 | 8.0 | 25.0 | 0.00 | 1.40 | 0.46 | 72 | 996.5 |
| 20260504190048 | 50 | 287 | 12.0 | 36.0 | 0.00 | 1.40 | 0.46 | 71 | 996.0 |
| 20260504184555 | 50 | 262 | 11.0 | 27.0 | 0.00 | 1.40 | 0.46 | 74 | 995.7 |
| 20260504183141 | 49 | 317 | 13.0 | 29.0 | 0.00 | 1.40 | 0.46 | 76 | 995.4 |
| 20260504181538 | 48 | 195 | 15.0 | 25.0 | 0.00 | 1.40 | 0.46 | 80 | 995.2 |
| 20260504180037 | 47 | 241 | 13.0 | 25.0 | 0.00 | 1.40 | 0.46 | 83 | 995.2 |
| 20260504174532 | 46 | 270 | 17.0 | 34.0 | 0.00 | 1.40 | 0.46 | 84 | 994.8 |
| 20260504173028 | 46 | 245 | 9.0 | 30.0 | 0.00 | 1.40 | 0.46 | 88 | 994.4 |
| 20260504171524 | 44 | 301 | 8.0 | 27.0 | 0.02 | 1.40 | 0.46 | 91 | 994.2 |
| 20260504140103 | 39 | 273 | 9.0 | 37.0 | 0.05 | 1.12 | 0.18 | 94 | 987.6 |
| 20260504081518 | 36 | 249 | 0.0 | 0.0 | 0.02 | 0.99 | 0.06 | 99 | 974.7 |